Flag for Germany Weather past 2 weeks in Radebeul, Saxony, Germany

Now
49 °F

Partly sunny.


Feels Like: 46 °F
Forecast: 41 / 50 °F
Wind: 7 mph from West

Location: Dresden-Klotzsche

Current Time: Mar 27, 2015 at 1:29:12 PM

Latest Report: Mar 27, 2015 at 1:00 PM


Visibility: 17 mi

Pressure: 29.94 "Hg

Humidity: 57%

Dew point: 34 °F

Location of RadebeulLocation

Historic Weather in Radebeul — Graph

°F

Radebeul temperature yesterday

Maximum temperature yesterday: 55 °F (at 12:00 AM)
Minimum temperature yesterday: 43 °F (at 11:00 AM)
Average temperature yesterday: 47 °F

Past Weeks' High & Low Weather Summary

 TemperatureHumidityPressure
High64 °F (Mar 25, 3:00 PM)100% (Mar 13, 7:00 AM)30.49 "Hg (Mar 13, 7:00 AM)
Low26 °F (Mar 23, 3:00 AM)26% (Mar 19, 4:00 PM)29.62 "Hg (Mar 26, 2:00 AM)
Average43 °F73%30.17 "Hg
* Reported Mar 12 12:00 Noon — Mar 27 12:00 Noon, Radebeul, Weather by CustomWeather, © 2015

Note: Actual official high and low records may vary slightly from our data, if they occured in-between our weather recording intervals... More about our weather records

Advertising

Radebeul weather history for previous 24 hours

 ConditionsComfort  
Time TempWeatherWind HumidityBarometerVisibility
12:00 PM
Fri, Mar 27
46 °FPartly sunny.7 mph73%29.94 "Hg16 mi
11:00 AM46 °FOvercast.6 mph76%29.94 "Hg14 mi
9:00 AM43 °FOvercast.6 mph86%29.91 "Hg8 mi
8:00 AM42 °FQuite cool.3 mph89%29.90 "HgN/A
7:00 AM41 °FLight rain. Overcast.5 mph89%29.88 "Hg7 mi
6:00 AM42 °FOvercast.3 mph89%29.86 "Hg6 mi
5:00 AM42 °FLight rain. Overcast.5 mph87%29.84 "Hg5 mi
3:00 AM42 °FLight rain. Low clouds.3 mph92%29.82 "Hg4 mi
2:00 AM43 °FLight rain. Low clouds.2 mph92%29.81 "Hg4 mi
1:00 AM44 °FLight rain. Low clouds.5 mph90%29.81 "Hg3 mi
12:00 AM44 °FLight rain. Low clouds.3 mph99%29.80 "Hg2 mi
11:00 PM
Thu, Mar 26
43 °FLight rain. Low clouds.1 mph98%29.80 "Hg2 mi
10:00 PM44 °FLight rain. Overcast.2 mph94%29.80 "Hg3 mi
9:00 PM44 °FLight rain. Overcast.No wind90%29.79 "Hg4 mi
8:00 PM44 °FLight rain. Overcast.1 mph90%29.79 "Hg4 mi
7:00 PM45 °FLight rain. Overcast.2 mph88%29.78 "Hg3 mi
6:00 PM45 °FFog.2 mph86%29.78 "Hg4 mi
5:00 PM46 °FFog.3 mph84%29.77 "Hg4 mi
3:00 PM45 °FFog.5 mph88%29.77 "Hg3 mi
2:00 PM45 °FFog.5 mph90%29.77 "Hg3 mi
1:00 PM44 °FFog.5 mph93%29.76 "Hg3 mi
Weather by CustomWeather, © 2015

See weather overviewHow to use our weather pages